This is the latest recevied weather packets stored in our database for station/object KC5DAQ-29. If no packets are shown the sender has not sent any weather packets the latest 1 day(s).
| Time | Temp. | Humidity | Pressure | Rain* | Wind** | Luminosity | Snow |
|---|---|---|---|---|---|---|---|
| 1778015937 | 28.89° C | 100% | 1004.8 hPa | 0 mm | 1.34 m/s, 149° | 352 W/m² | - |
| 1778015878 | 28.89° C | 100% | 1004.8 hPa | 0 mm | 0.89 m/s, 134° | 350 W/m² | - |
| 1778015818 | 28.33° C | 100% | 1004.8 hPa | 0 mm | 0.45 m/s, 175° | 463 W/m² | - |
| 1778015757 | 28.33° C | 100% | 1004.9 hPa | 0 mm | 0.45 m/s, 162° | 463 W/m² | - |
| 1778015697 | 28.33° C | 100% | 1004.9 hPa | 0 mm | 0.89 m/s, 162° | 463 W/m² | - |
| 1778015637 | 28.33° C | 100% | 1004.9 hPa | 0 mm | 0.89 m/s, 165° | 911 W/m² | - |
| 1778015577 | 28.33° C | 100% | 1004.9 hPa | 0 mm | 0.89 m/s, 157° | 508 W/m² | - |
| 1778015517 | 28.33° C | 100% | 1004.9 hPa | 0 mm | 1.79 m/s, 185° | 114 W/m² | - |
| 1778015458 | 28.33° C | 100% | 1004.9 hPa | 0 mm | 1.79 m/s, 185° | 114 W/m² | - |
| 1778015398 | 28.33° C | 100% | 1004.9 hPa | 0 mm | 1.79 m/s, 185° | 114 W/m² | - |
| 1778015338 | 28.33° C | 100% | 1004.9 hPa | 0 mm | 1.79 m/s, 185° | 114 W/m² | - |
| 1778015277 | 28.33° C | 100% | 1005 hPa | 0 mm | 1.79 m/s, 185° | 114 W/m² | - |
| 1778015216 | 28.33° C | 100% | 1005 hPa | 0 mm | 2.24 m/s, 158° | 132 W/m² | - |
| 1778015157 | 28.33° C | 100% | 1005.1 hPa | 0 mm | 1.79 m/s, 168° | 132 W/m² | - |
| 1778015098 | 28.33° C | 100% | 1005 hPa | 0 mm | 0.89 m/s, 142° | 141 W/m² | - |
| 1778015037 | 28.33° C | 100% | 1005 hPa | 0 mm | 0.89 m/s, 135° | 176 W/m² | - |
| 1778014976 | 28.33° C | 100% | 1005 hPa | 0 mm | 0.89 m/s, 103° | 281 W/m² | - |
| 1778014916 | 28.33° C | 100% | 1005.1 hPa | 0 mm | 0.89 m/s, 179° | 281 W/m² | - |
| 1778014856 | 28.33° C | 100% | 1005 hPa | 0 mm | 0.89 m/s, 154° | 209 W/m² | - |
| 1778014798 | 28.33° C | 100% | 1005.1 hPa | 0 mm | 1.34 m/s, 162° | 209 W/m² | - |
| 1778014737 | 28.33° C | 100% | 1005.1 hPa | 0 mm | 0.89 m/s, 190° | 209 W/m² | - |
| 1778014677 | 28.33° C | 100% | 1005.1 hPa | 0 mm | 1.34 m/s, 169° | 209 W/m² | - |
| 1778014618 | 28.89° C | 100% | 1005.1 hPa | 0 mm | 1.34 m/s, 176° | 209 W/m² | - |
| 1778014557 | 28.89° C | 100% | 1005.1 hPa | 0 mm | 1.34 m/s, 166° | 209 W/m² | - |
| 1778014498 | 28.89° C | 100% | 1005.1 hPa | 0 mm | 1.79 m/s, 159° | 160 W/m² | - |
* Rain latest hour (hover to see other rain measurements)
** Current wind speed in m/s (hover to see current wind gust speed)